This is the latest recevied weather packets stored in our database for station/object KA4YMY. If no packets are shown the sender has not sent any weather packets the latest 10 day(s).
| Time | Temp. | Humidity | Pressure | Rain* | Wind** | Luminosity | Snow |
|---|---|---|---|---|---|---|---|
| 1777790716 | 5.56° C | 86% | 1015.9 hPa | 0 mm | - | - | - |
| 1777790116 | 5.56° C | 86% | 1015.8 hPa | 0 mm | - | - | - |
| 1777789516 | 5.56° C | 85% | 1015.7 hPa | 0 mm | - | - | - |
| 1777788916 | 5.56° C | 85% | 1015.6 hPa | 0 mm | - | - | - |
| 1777788316 | 6.11° C | 85% | 1015.6 hPa | 0 mm | - | - | - |
| 1777787716 | 6.11° C | 85% | 1015.6 hPa | 0 mm | - | - | - |
| 1777787116 | 6.67° C | 85% | 1015.7 hPa | 0 mm | - | - | - |
| 1777786516 | 6.67° C | 85% | 1015.7 hPa | 0 mm | - | - | - |
| 1777785916 | 6.67° C | 84% | 1015.7 hPa | 0 mm | - | - | - |
| 1777785316 | 7.22° C | 84% | 1015.7 hPa | 0 mm | - | - | - |
| 1777784716 | 7.22° C | 84% | 1015.6 hPa | 0 mm | - | - | - |
| 1777784116 | 7.22° C | 83% | 1015.5 hPa | 0 mm | - | - | - |
| 1777783516 | 7.78° C | 83% | 1015.4 hPa | 0 mm | - | - | - |
| 1777782916 | 7.78° C | 82% | 1015.1 hPa | 0 mm | - | - | - |
| 1777782316 | 8.33° C | 81% | 1015.2 hPa | 0 mm | - | - | - |
| 1777781716 | 8.33° C | 81% | 1015.1 hPa | 0 mm | - | - | - |
| 1777781116 | 8.89° C | 81% | 1015 hPa | 0 mm | - | - | - |
| 1777780517 | 8.89° C | 81% | 1015 hPa | 0 mm | - | - | - |
| 1777779917 | 9.44° C | 80% | 1014.9 hPa | 0 mm | - | - | - |
| 1777779317 | 9.44° C | 79% | 1014.9 hPa | 0 mm | - | - | - |
| 1777778717 | 9.44° C | 78% | 1014.9 hPa | 0 mm | - | - | - |
| 1777778117 | 10° C | 76% | 1014.9 hPa | 0 mm | - | - | - |
| 1777777517 | 10° C | 77% | 1014.7 hPa | 0 mm | - | - | - |
| 1777776917 | 10° C | 76% | 1014.7 hPa | 0 mm | - | - | - |
| 1777776317 | 10.56° C | 75% | 1014.7 hPa | 0 mm | - | - | - |
* Rain latest hour (hover to see other rain measurements)
** Current wind speed in m/s (hover to see current wind gust speed)